Location: Al Mulaqqa?ah
(24.1833°N, 32.8833°E)
Time: 21:09:10
(UTC+00:00)

GPS 2-18 Rocket1 - Pass Details

Date: 26 September 2021
Orbit: 455 x 507 km, 20.9° (Epoch: 21 October)

Event Time Altitude Azimuth Distance (km) Brightness Sun altitude
Rises 16:07:19 0° 266° (W) 2,458 9.2 -6.9°
Reaches altitude 10° 16:09:37 10° 257° (WSW) 1,579 7.2 -7.4°
Maximum altitude 16:12:58 35° 190° (S) 744 4.1 -8.2°
Drops below altitude 10° 16:16:17 10° 123° (ESE) 1,571 5.1 -9.0°
Enters shadow 16:16:28 - 121° (ESE) 1,640 5.2 -9.0°
